Location: Baia Mare
(47.6567°N, 23.5850°E)
Time: 13:40:39
(UTC+03:00)

ISS - Pass Details

Date: 25 July 2019
Orbit: 409 x 418 km, 51.6° (Epoch: 21 July)

Event Time Altitude Azimuth Distance (km) Brightness Sun altitude
Rises 23:58:46 0° 291° (WNW) 2,354 0.7 -19.4°
Reaches altitude 10° 00:00:54 10° 296° (WNW) 1,489 -0.3 -19.5°
Maximum altitude 00:04:11 52° 14° (NNE) 521 -3.1 -19.7°
Enters shadow 00:05:11 36° 69° (ENE) 673 -2.8 -19.8°
